{"data":{"norad_id":58597,"intl_designator":"2023-200J","name":"STARLINK-31087","alt_names":[],"object_type":"PAYLOAD","status":"ACTIVE","operator":null,"country":"US","launch_date":"2023-12-19","launch_site_code":"AFETR","launch_vehicle":null,"mission":null,"orbit_class":"UNKNOWN","rcs_meters":null,"size_class":null,"mass_kg":null,"dimensions":null,"purposes":["comms"],"wikipedia_slug":null,"has_3d_model":false,"image_url":null,"decayed_at":null,"tle_current":{"epoch":"2026-09-20T01:51:13.815072Z","epoch_age_seconds":186426,"freshness":"STALE","line1":"1 58597U 23200J   26263.07724323 -.00000151  00000+0  40347-5 0  9998","line2":"2 58597  43.0060 150.7382 0001582 251.6437 108.4243 15.27573813153237","mean_motion":15.27573813,"eccentricity":0.0001582,"inclination_deg":43.006,"raan_deg":150.7382,"arg_perigee_deg":251.6437,"mean_anomaly_deg":108.4243,"bstar":4.0347e-6,"rev_number":15323,"period_min":94.267130514105,"perigee_km":481.98217963471,"apogee_km":484.15306477718,"semimajor_km":6861.2046222059,"source":"CELESTRAK","updated_at":"2026-09-21T09:00:33.918484Z"}}}